JA3VQW-13 Weather Reports


time (UTC)temp
C
wind
direction
speed
KPH
gust
KPH
rain 1hr
cm
rain 24hr
cm
rain mn
cm
humidity
%
barometer
mb
20260505053617 27 225 0.0 0.0 0.00 0.00 0.00 14 1009.0
20260505052632 28 180 0.0 0.0 0.00 0.00 0.00 14 1009.0
20260505051132 28 180 0.0 3.2 0.00 0.00 0.00 14 1009.0
20260505050618 28 180 0.0 0.0 0.00 0.00 0.00 14 1009.0
20260505040618 25 225 0.0 3.2 0.00 0.00 0.00 15 1010.0
20260505033618 23 225 0.0 3.2 0.00 0.00 0.00 16 1010.0
20260505030617 22 140 3.2 0.0 0.00 0.00 0.00 16 1010.0
20260505025630 22 225 0.0 0.0 0.00 0.00 0.00 16 1010.0
20260505024131 21 225 0.0 3.2 0.00 0.00 0.00 17 1011.0
20260505023618 21 180 0.0 0.0 0.00 0.00 0.00 17 1011.0
20260505022631 20 270 0.0 0.0 0.00 0.00 0.00 20 1011.0
20260505021131 20 270 0.0 0.0 0.00 0.00 0.00 20 1011.0
20260505020618 20 270 0.0 0.0 0.00 0.00 0.00 20 1011.0
20260505015630 19 270 0.0 0.0 0.00 0.00 0.00 20 1011.0
20260505013616 18 270 0.0 0.0 0.00 0.00 0.00 23 1012.0
20260505012631 18 180 0.0 0.0 0.00 0.00 0.00 23 1012.0
20260505011131 17 270 0.0 0.0 0.00 0.00 0.00 24 1012.0
20260505010618 17 270 0.0 0.0 0.00 0.00 0.00 24 1012.0
20260505005632 17 270 0.0 0.0 0.00 0.00 0.00 25 1012.0
20260505004132 16 315 0.0 0.0 0.00 0.00 0.00 27 1012.0
20260505003617 16 315 0.0 0.0 0.00 0.00 0.00 28 1012.0
20260505002632 16 315 0.0 0.0 0.00 0.00 0.00 29 1012.0
20260505001131 16 180 0.0 0.0 0.00 0.00 0.00 28 1012.0
20260505000616 16 180 0.0 0.0 0.00 0.00 0.00 28 1012.0
20260504235630 15 180 0.0 3.2 0.00 0.00 0.00 32 1012.0
20260504234130 15 180 0.0 0.0 0.00 0.00 0.00 34 1012.0
20260504233617 15 180 0.0 0.0 0.00 0.00 0.00 35 1012.0
20260504232631 15 180 0.0 0.0 0.00 0.00 0.00 36 1012.0
20260504231131 14 180 0.0 0.0 0.00 0.00 0.00 39 1012.0
20260504230616 13 180 0.0 0.0 0.00 0.00 0.00 39 1012.0
20260504225631 13 135 0.0 0.0 0.00 0.00 0.00 41 1012.0
20260504224130 13 135 0.0 0.0 0.00 0.00 0.00 45 1012.0
20260504223616 13 135 0.0 0.0 0.00 0.00 0.00 45 1012.0
20260504222632 13 135 0.0 0.0 0.00 0.00 0.00 46 1012.0
20260504221131 12 135 0.0 0.0 0.00 0.00 0.00 48 1011.0
20260504220616 12 135 0.0 0.0 0.00 0.00 0.00 48 1012.0
20260504215631 12 135 0.0 0.0 0.00 0.00 0.00 49 1012.0
20260504214130 11 135 0.0 0.0 0.00 0.00 0.00 53 1011.0
20260504213617 11 135 0.0 0.0 0.00 0.00 0.00 54 1012.0
20260504212632 11 135 0.0 0.0 0.00 0.00 0.00 56 1012.0
20260504211131 11 135 0.0 0.0 0.00 0.00 0.00 58 1011.0
20260504210616 11 135 0.0 0.0 0.00 0.00 0.00 59 1010.0
20260504205631 10 135 0.0 0.0 0.00 0.00 0.00 58 1010.0
20260504204130 10 135 0.0 0.0 0.00 0.00 0.00 58 1010.0
20260504203617 10 135 0.0 0.0 0.00 0.00 0.00 59 1010.0
20260504202630 10 135 0.0 0.0 0.00 0.00 0.00 60 1010.0
20260504201129 10 135 0.0 0.0 0.00 0.00 0.00 61 1010.0
20260504200617 10 135 0.0 0.0 0.00 0.00 0.00 60 1009.0
20260504195631 10 135 0.0 0.0 0.00 0.00 0.00 60 1009.0
20260504194129 10 135 0.0 0.0 0.00 0.00 0.00 59 1009.0
20260504193616 10 135 0.0 0.0 0.00 0.00 0.00 58 1009.0
20260504192631 10 135 0.0 0.0 0.00 0.00 0.00 57 1009.0
20260504191131 10 135 0.0 0.0 0.00 0.10 0.00 56 1009.0
20260504190616 10 135 0.0 0.0 0.00 0.10 0.00 55 1009.0
20260504185630 10 135 0.0 0.0 0.00 0.10 0.00 54 1009.0
20260504184131 11 270 0.0 3.2 0.00 0.30 0.00 51 1009.0
20260504183616 11 270 0.0 0.0 0.00 0.53 0.00 50 1009.0
20260504182631 11 270 0.0 0.0 0.00 0.74 0.00 49 1009.0
20260504181131 12 270 0.0 0.0 0.00 0.84 0.00 48 1008.0
20260504180616 12 270 0.0 0.0 0.00 0.84 0.00 47 1009.0
20260504175630 12 270 0.0 0.0 0.00 1.27 0.00 47 1009.0
20260504174129 12 315 3.2 4.8 0.00 1.70 0.00 46 1008.0
20260504173615 12 315 0.0 3.2 0.00 1.91 0.00 46 1008.0
20260504172630 12 270 0.0 0.0 0.00 2.21 0.00 45 1008.0
20260504171130 12 270 0.0 0.0 0.00 2.64 0.00 44 1008.0
20260504170617 12 315 0.0 0.0 0.00 2.74 0.00 44 1008.0
20260504151130 13 315 9.7 12.9 0.00 3.28 0.00 41 1007.0
20260504150617 13 315 1.6 4.8 0.00 3.28 0.00 41 1007.0
20260504141129 13 315 3.2 4.8 0.00 4.88 3.28 42 1007.0
20260504140616 13 270 0.0 3.2 0.00 4.88 3.28 41 1007.0
20260504130616 14 270 0.0 8.0 0.00 5.82 3.28 39 1006.0
20260504110618 15 310 9.7 9.7 0.00 6.12 3.28 36 1004.0
20260504081132 17 270 0.0 3.2 0.00 7.09 3.28 39 1001.0
20260504080617 17 225 0.0 3.2 0.00 7.09 3.28 38 1000.0